Flag for India Weather past 2 weeks in Yavatmal, Maharashtra, India

Now
99 °F

Scattered clouds.


Feels Like: 108 °F
Forecast: 71 / 94 °F
Wind: 2 mph from Northeast

Location: Nagpur Sonegaon

Current Time: Oct 1, 2014 at 2:20:47 PM

Latest Report: Oct 1, 2014 at 1:40 PM


Visibility: 4 mi

Pressure: 29.89 "Hg

Humidity: 42%

Dew point: 72 °F

Location of YavatmalLocation

Historic Weather in Yavatmal — Graph

°F

Yavatmal temperature yesterday

Maximum temperature yesterday: 95 °F (at 12:10 PM)
Minimum temperature yesterday: 70 °F (at 5:40 AM)
Average temperature yesterday: 84 °F

Past Weeks' High & Low Weather Summary

 TemperatureHumidityPressure
High99 °F (Sep 27, 3:10 PM)94% (Sep 23, 4:10 AM)30.01 "Hg (Sep 23, 4:10 AM)
Low70 °F (Sep 30, 5:40 AM)35% (Sep 27, 3:10 PM)29.59 "Hg (Sep 16, 3:40 PM)
Average84 °F67%29.81 "Hg
* Reported Sep 16 1:10 PM — Oct 1 12:40 PM, Yavatmal, Weather by CustomWeather, © 2014

Note: Actual official high and low records may vary slightly from our data, if they occured in-between our weather recording intervals... More about our weather records

Advertising

Yavatmal weather history for previous 24 hours

 ConditionsComfort  
Time TempWeatherWind HumidityBarometerVisibility
12:40 PM
Oct 1
97 °FPassing clouds.5 mph42%29.92 "Hg4 mi
12:10 PM95 °FPassing clouds.5 mph44%29.92 "Hg4 mi
11:40 AM95 °FPassing clouds.5 mph44%29.92 "Hg4 mi
10:10 AM90 °FClear.5 mph55%29.98 "Hg4 mi
9:40 AM88 °FHaze.3 mph59%29.98 "Hg3 mi
9:10 AM88 °FHaze.3 mph55%29.98 "Hg3 mi
8:40 AM86 °FHaze.3 mph59%29.98 "Hg3 mi
8:10 AM81 °FHaze.3 mph66%29.98 "Hg3 mi
7:40 AM79 °FHaze.2 mph70%29.98 "Hg3 mi
6:40 AM72 °FHaze.2 mph78%29.95 "Hg2 mi
6:10 AM72 °FHaze.No wind78%29.95 "Hg2 mi
5:40 AM70 °FHaze.No wind83%29.95 "Hg2 mi
4:10 AM70 °FHaze.No wind83%29.92 "Hg2 mi
3:10 AM73 °FHaze.No wind78%29.92 "Hg2 mi
2:10 AM73 °FHaze.2 mph78%29.92 "Hg2 mi
12:10 AM77 °FHaze.2 mph69%29.95 "Hg2 mi
11:10 PM
Sep 30
75 °FHaze.2 mph74%29.95 "Hg2 mi
10:10 PM77 °FHaze.2 mph69%29.95 "Hg2 mi
8:40 PM79 °FHaze.2 mph45%29.92 "Hg2 mi
8:10 PM79 °FHaze.2 mph70%29.92 "Hg2 mi
7:40 PM81 °FHaze.2 mph66%29.89 "Hg2 mi
7:10 PM82 °FHaze.2 mph66%29.89 "Hg2 mi
6:40 PM82 °FHaze.3 mph66%29.86 "Hg2 mi
6:10 PM86 °FHaze.3 mph55%29.89 "Hg2 mi
5:40 PM88 °FHaze.3 mph55%29.86 "Hg2 mi
5:10 PM91 °FHaze.5 mph49%29.86 "Hg2 mi
4:40 PM93 °FHaze.5 mph49%29.86 "Hg2 mi
4:10 PM95 °FHaze.5 mph47%29.86 "Hg2 mi
3:10 PM95 °FHaze.5 mph44%29.86 "Hg2 mi
2:10 PM95 °FScattered clouds.3 mph44%29.86 "Hg2 mi
Weather by CustomWeather, © 2014

See weather overviewHow to use our weather pages